Date String (YYYY-MM-DD hh:mm:ss) UTC,Instrument flags,Ambient pressure (hPa),Sample flow (lpm),Bypass flow (lpm),Sample temperature (°C),Ambient temperature (°C),ASC tube jacket temperature (°C),LED temperature (°C),Box temperature (°C),Sample RH (%),Span deviation,Mass concentration (μg/m³),Mass concentration (μg/m³),Mass concentration (μg/m³)
DateTimeUTC,F1_M11,P_M11,Q1_M11,Q2_M11,T1_M11,T2_M11,T3_M11,T4_M11,T5_M11,U1_M11,ZSPAN_M11,X0_M11,X2_M11,X1_M11
2022-07-26 03:00:00,,0825.4,5.01,0.00,30.3,27.3,00.0,38.8,31.6,33.5,0000.0,0011.96,0005.79,0005.03
2022-07-26 03:01:00,,0825.4,4.99,0.00,30.2,27.2,00.0,38.8,31.5,33.5,0000.0,0011.34,0005.81,0005.03
2022-07-26 03:02:00,,0825.4,5.00,0.00,30.1,27.3,00.0,38.8,31.5,34.1,0000.0,0011.66,0005.86,0005.05
2022-07-26 03:03:00,,0825.4,5.00,0.00,30.1,27.5,00.0,38.8,31.5,34.4,0000.0,0011.01,0005.93,0005.05
2022-07-26 03:04:00,,0825.4,4.99,0.00,30.1,27.7,00.0,38.7,31.5,34.5,0000.0,0010.72,0005.99,0005.07
2022-07-26 03:05:00,,0825.4,5.00,0.00,30.1,27.9,00.0,38.7,31.6,34.4,0000.0,0010.90,0006.05,0005.09
2022-07-26 03:06:00,,0825.5,5.00,0.00,30.1,28.0,00.0,38.7,31.7,34.4,0000.0,0010.74,0006.03,0005.10
2022-07-26 03:07:00,,0825.4,5.02,0.00,30.1,28.2,00.0,38.7,31.7,34.6,0000.0,0010.97,0006.04,0005.10
2022-07-26 03:08:00,,0825.4,5.01,0.00,30.1,28.3,00.0,38.7,31.8,35.2,0000.0,0012.00,0006.04,0005.10
2022-07-26 03:09:00,,0825.4,4.99,0.00,30.3,28.5,00.0,38.7,31.9,34.4,0000.0,0012.27,0006.06,0005.09
2022-07-26 03:10:00,,0825.5,4.99,0.00,30.4,28.5,00.0,38.7,32.0,34.3,0000.0,0012.69,0006.06,0005.08
2022-07-26 03:11:00,,0825.5,5.02,0.00,30.5,28.1,00.0,38.7,31.9,34.1,0000.0,0013.06,0006.03,0005.07
2022-07-26 03:12:00,,0825.4,4.99,0.00,30.4,27.4,00.0,38.7,31.7,33.9,0000.0,0013.28,0006.02,0005.06
2022-07-26 03:13:00,,0825.5,5.01,0.00,30.4,27.1,00.0,38.7,31.6,33.8,0000.0,0013.74,0006.07,0005.06
2022-07-26 03:14:00,,0825.4,5.00,0.00,30.3,27.1,00.0,38.7,31.5,33.7,0000.0,0013.55,0006.00,0005.06
2022-07-26 03:15:00,,0825.5,4.99,0.00,30.2,27.3,00.0,38.7,31.5,33.5,0000.0,0013.36,0006.00,0005.06
2022-07-26 03:16:00,,0825.5,5.00,0.00,30.2,27.4,00.0,38.7,31.5,33.3,0000.0,0013.24,0006.00,0005.06
2022-07-26 03:17:00,,0825.5,5.01,0.00,30.2,27.6,00.0,38.7,31.5,33.6,0000.0,0013.26,0006.02,0005.07
2022-07-26 03:18:00,,0825.5,5.00,0.00,30.2,27.8,00.0,38.7,31.6,33.2,0000.0,0013.64,0006.01,0005.07
2022-07-26 03:19:00,,0825.5,5.00,0.00,30.2,28.0,00.0,38.7,31.6,32.9,0000.0,0012.91,0006.04,0005.09
2022-07-26 03:20:00,,0825.5,5.00,0.00,30.2,28.2,00.0,38.7,31.7,33.0,0000.0,0012.74,0006.06,0005.11
2022-07-26 03:21:00,,0825.5,5.00,0.00,30.2,28.3,00.0,38.7,31.7,32.8,0000.0,0012.45,0006.10,0005.14
2022-07-26 03:22:00,,0825.5,5.01,0.00,30.2,28.4,00.0,38.7,31.8,32.6,0000.0,0012.17,0006.19,0005.17
2022-07-26 03:23:00,,0825.5,5.01,0.00,30.2,28.5,00.0,38.7,31.8,32.4,0000.0,0012.12,0006.28,0005.21
2022-07-26 03:24:00,,0825.5,5.00,0.00,30.2,28.6,00.0,38.7,31.9,32.6,0000.0,0011.39,0006.28,0005.22
2022-07-26 03:25:00,,0825.5,4.99,0.00,30.2,28.1,00.0,38.7,31.7,32.2,0000.0,0011.43,0006.29,0005.23
2022-07-26 03:26:00,,0825.5,5.01,0.00,30.1,27.4,00.0,38.6,31.6,31.9,0000.0,0011.80,0006.31,0005.25
2022-07-26 03:27:00,,0825.5,5.00,0.00,30.1,27.1,00.0,38.6,31.5,31.7,0000.0,0012.00,0006.36,0005.27
2022-07-26 03:28:00,,0825.5,4.99,0.00,30.0,27.1,00.0,38.6,31.4,32.0,0000.0,0012.13,0006.40,0005.27
2022-07-26 03:29:00,,0825.5,5.01,0.00,29.9,27.3,00.0,38.6,31.4,32.1,0000.0,0011.84,0006.44,0005.29
2022-07-26 03:30:00,,0825.5,4.99,0.00,29.9,27.4,00.0,38.6,31.4,32.0,0000.0,0011.61,0006.51,0005.31
2022-07-26 03:31:00,,0825.5,5.00,0.00,29.9,27.6,00.0,38.6,31.4,32.0,0000.0,0011.91,0006.63,0005.34
2022-07-26 03:32:00,,0825.5,5.01,0.00,29.9,27.8,00.0,38.6,31.5,31.8,0000.0,0011.85,0006.60,0005.34
2022-07-26 03:33:00,,0825.5,4.99,0.00,29.9,28.0,00.0,38.6,31.5,31.9,0000.0,0011.79,0006.53,0005.34
2022-07-26 03:34:00,,0825.5,5.00,0.00,29.9,28.1,00.0,38.6,31.6,31.7,0000.0,0011.74,0006.51,0005.33
2022-07-26 03:35:00,,0825.5,5.00,0.00,29.9,28.3,00.0,38.6,31.6,31.7,0000.0,0011.92,0006.48,0005.35
2022-07-26 03:36:00,,0825.5,5.00,0.00,29.9,28.4,00.0,38.6,31.7,31.7,0000.0,0012.24,0006.50,0005.37
2022-07-26 03:37:00,,0825.5,5.00,0.00,29.9,28.5,00.0,38.6,31.7,31.4,0000.0,0012.09,0006.45,0005.37
2022-07-26 03:38:00,,0825.5,5.00,0.00,30.0,28.6,00.0,38.6,31.8,31.4,0000.0,0011.99,0006.39,0005.37
2022-07-26 03:39:00,,0825.6,5.00,0.00,30.0,28.3,00.0,38.5,31.7,31.5,0000.0,0012.07,0006.38,0005.38
2022-07-26 03:40:00,,0825.6,4.99,0.00,29.9,27.6,00.0,38.5,31.6,31.7,0000.0,0012.37,0006.40,0005.40
2022-07-26 03:41:00,,0825.6,5.00,0.00,29.9,27.2,00.0,38.5,31.5,32.3,0000.0,0012.35,0006.37,0005.39
2022-07-26 03:42:00,,0825.6,5.00,0.00,29.8,27.1,00.0,38.5,31.4,32.9,0000.0,0012.06,0006.26,0005.37
2022-07-26 03:43:00,,0825.6,4.99,0.00,29.7,27.2,00.0,38.4,31.3,33.3,0000.0,0012.01,0006.24,0005.36
2022-07-26 03:44:00,,0825.6,5.02,0.00,29.7,27.4,00.0,38.4,31.3,33.2,0000.0,0012.29,0006.30,0005.37
2022-07-26 03:45:00,,0825.6,4.99,0.00,29.7,27.5,00.0,38.4,31.4,32.8,0000.0,0012.55,0006.32,0005.40
2022-07-26 03:46:00,,0825.6,4.99,0.00,29.7,27.7,00.0,38.4,31.4,31.7,0000.0,0012.57,0006.39,0005.45
2022-07-26 03:47:00,,0825.6,5.01,0.00,29.7,27.9,00.0,38.4,31.4,30.7,0000.0,0012.39,0006.53,0005.60
2022-07-26 03:48:00,,0825.6,5.00,0.00,29.7,28.1,00.0,38.4,31.5,29.9,0000.0,0012.20,0006.69,0005.76
2022-07-26 03:49:00,,0825.6,5.00,0.00,29.7,28.2,00.0,38.4,31.5,29.5,0000.0,0013.35,0006.87,0005.95
2022-07-26 03:50:00,,0825.6,5.00,0.00,29.7,28.3,00.0,38.4,31.6,29.9,0000.0,0014.56,0007.03,0006.13
2022-07-26 03:51:00,,0825.6,5.00,0.00,29.8,28.4,00.0,38.4,31.6,30.7,0000.0,0014.88,0007.11,0006.25
2022-07-26 03:52:00,,0825.6,5.00,0.00,29.8,28.6,00.0,38.5,31.7,30.0,0000.0,0015.70,0007.24,0006.42
2022-07-26 03:53:00,,0825.6,5.00,0.00,29.8,28.5,00.0,38.5,31.7,29.4,0000.0,0015.87,0007.44,0006.61
2022-07-26 03:54:00,,0825.6,5.00,0.00,29.8,27.8,00.0,38.4,31.6,28.9,0000.0,0016.51,0007.68,0006.82
2022-07-26 03:55:00,,0825.6,5.00,0.00,29.7,27.2,00.0,38.4,31.4,29.0,0000.0,0016.72,0007.82,0007.00
2022-07-26 03:56:00,,0825.6,4.99,0.00,29.7,27.0,00.0,38.3,31.3,29.5,0000.0,0016.51,0007.98,0007.17
2022-07-26 03:57:00,,0825.6,5.00,0.00,29.6,27.1,00.0,38.3,31.2,29.5,0000.0,0016.33,0008.08,0007.30
2022-07-26 03:58:00,,0825.5,4.99,0.00,29.6,27.2,00.0,38.3,31.2,29.3,0000.0,0016.65,0008.11,0007.33
2022-07-26 03:59:00,,0825.6,4.99,0.00,29.5,27.4,00.0,38.3,31.3,29.6,0000.0,0016.71,0008.15,0007.34
